Lexington Weather

Lexington, Massachusetts, USA

78°F
8/3/2020 7:58am 
  • Lexington Conditions: Few Clouds
  • Temperature: 77.7°F / 25.4°CWarmer 1.2°F than last hour.
  • Dew Point: 72.9°FDecreased 1.9°Fsince last hour.
  • Relative Humidity: 85%Decreased 10.0% since last hour.
  • Wind: Wind from SW SW 3 mph, 10-min avg: 3 mph, gust: 10 mph
  • Barometer: 29.85 in Steady
  • Visibility: 10 miles
  • Rain Today: 0.00 in
  •   
Southeast Middlesex County - Tropical Storm Watch - Tropical Cyclone Statement
 - SEE ALL NEARBY ALERTS -

Regional Weather Roundup
for Boston / Norton, MA

        
000
ASUS41 KBOX 020904
RWRBOX

REGIONAL WEATHER ROUNDUP
NATIONAL WEATHER SERVICE BOSTON/NORTON MA
500 AM EDT SUN AUG 02 2020

NOTE:  "FAIR" INDICATES FEW OR NO CLOUDS BELOW 12,000 FEET WITH NO 
SIGNIFICANT WEATHER AND/OR OBSTRUCTIONS TO VISIBILITY.

MAZALL-021000-
EASTERN MASSACHUSETTS
  
CITY           SKY/WX    TMP DP  RH WIND       PRES   REMARKS
BOSTON         PTCLDY    71  67  87 S6        29.98S                  
BEVERLY        PTCLDY    70  67  90 CALM      29.97F                  
LAWRENCE       PTCLDY    71  68  90 CALM      29.99S                  
BEDFORD        PTCLDY    71  67  87 SE3       29.97S                  
BLUE HILL      NOT AVBL                                               
NORWOOD        PTCLDY    70  67  90 CALM      29.98S                  
MARSHFIELD     MOCLDY    73  73 100 CALM      29.98F                  
PLYMOUTH       PTCLDY    70  69  97 SW5       30.00S                  
TAUNTON        FOG       66  64  93 CALM      29.99S VSB 3/4          
NEW BEDFORD    PTCLDY    67  67 100 CALM      29.99S FOG              
$$

MAZALL-021000-
CAPE COD AND THE ISLANDS
  
CITY           SKY/WX    TMP DP  RH WIND       PRES   REMARKS
FALMOUTH       NOT AVBL                                               
HYANNIS        PTCLDY    72  69  90 CALM      29.99S                  
CHATHAM        CLEAR     73  68  84 CALM      30.01F                  
PROVINCETOWN   CLEAR     72  70  93 SW7       30.00F                  
NANTUCKET      FOG       66  64  93 CALM      30.01S VSB 1            
MARTHAS VNYRD  FOG       63  62  97 CALM      30.00S VSB 1/2          
$$
 
MAZALL-021000-
CENTRAL AND WESTERN MASSACHUSETTS
  
CITY           SKY/WX    TMP DP  RH WIND       PRES   REMARKS
WORCESTER      PTCLDY    69  64  84 W7        30.01S                  
FITCHBURG      PTCLDY    68  64  87 CALM      29.98F                  
ORANGE         PTCLDY    66  65  96 CALM      29.99S                  
SPRINGFIELD    CLOUDY    73  66  80 SE3       29.96S                  
WESTFIELD      CLOUDY    73  66  78 SW3       29.97S                  
NORTH ADAMS    CLOUDY    70  61  73 VRB6      29.96F                  
PITTSFIELD     CLOUDY    68  63  84 CALM      29.98S                  
$$
 
RIZALL-021000-
RHODE ISLAND
  
CITY           SKY/WX    TMP DP  RH WIND       PRES   REMARKS
PROVIDENCE     CLEAR     71  70  96 CALM      29.99S                  
NEWPORT        CLEAR     71  68  90 CALM      29.99S                  
BLOCK ISLAND   PTCLDY    71  70  96 S5        30.00R                  
SMITHFIELD     CLEAR     69  69 100 CALM      30.00S                  
WESTERLY       CLOUDY    69  66  90 CALM      29.99S                  
$$
 
CTZALL-021000-
CONNECTICUT
  
CITY           SKY/WX    TMP DP  RH WIND       PRES   REMARKS
BRADLEY INTL   MOCLDY    74  68  81 SE7       29.96S                  
HARTFORD       CLOUDY    75  69  81 S3        29.96S                  
BRIDGEPORT     CLOUDY    76  71  85 SE7       29.96R                  
DANBURY        CLOUDY    73  70  90 S3        29.98R                  
GROTON         PTCLDY    71  69  93 CALM      29.98R                  
NEW HAVEN      CLOUDY    77  73  87 SE6       29.97S                  
CHESTER        FAIR      72  72 100 CALM      29.99S                  
MERIDEN        CLOUDY    71  68  90 CALM      29.96S                  
WILLIMANTIC    CLOUDY    70  67  90 CALM      29.99S                  
OXFORD         CLOUDY    71  70  96 SE6       29.99S                  
$$

MEZ002-015-021-024-NHZ003-005-008-011-012-014-VTZ005-008-021000-
NORTHERN NEW ENGLAND
  
CITY           SKY/WX    TMP DP  RH WIND       PRES   REMARKS
PORTLAND ME    PTCLDY    66  61  84 SE3       29.98S                  
BANGOR ME      PTCLDY    64  61  90 CALM      29.98S                  
CONCORD NH     CLOUDY    65  62  90 CALM      29.98S                  
MANCHESTER NH  MOCLDY    70  64  81 CALM      29.96S                  
NASHUA NH      PTCLDY    66  66 100 CALM      29.98S                  
PORTSMOUTH NH  MOCLDY    66  62  88 CALM      29.96S                  
JAFFREY NH     PTCLDY    65  62  90 CALM      30.01S                  
KEENE NH       MOCLDY    64  64 100 CALM      29.98F                  
BURLINGTON VT  PTCLDY    70  61  73 CALM      29.92R                  
MT. WASHINGTON NOT AVBL                                               
$$

NYZ052-076-021000-
EASTERN NEW YORK
  
CITY           SKY/WX    TMP DP  RH WIND       PRES   REMARKS
ALBANY         CLOUDY    73  62  68 S6        29.92F                  
NEW YORK CITY  CLOUDY    79  71  76 S9        29.94R                  
$$
 
ANZALL-021000-
MARINE OBSERVATIONS
  
STATION/POSITION TIME  TEMP    WIND        PRES    VSBY  WAVE
                       AIR SEA DIR/SP/G                  HT/PER
                 (UTC) (F)     (DEG/KT/KT) (MB)    (MI)  (FT/S)
BOSTON BUOY      0850   72 72  160/  6/  6 1014.3S         1/10
BUZZARDS BAY     0800          210/  6/  6 1016.7F
NANTUCKET SOUND  0840      76  220/  6/  8 1015.2F
MASS BAY-STELLWA 0804   72     240/ 12/ 14 1013.3R  1 7/8  2/11
ISLE OF SHOALS   0800   71     190/ 10/ 10 1014.5R
S OF BLOCK IS    0826      73                N/A           3/11
$$

......................KEY.........................
  SKY/WX - SKY CONDITION/PRESENT WEATHER
  TMP    - TEMPERATURE IN FAHRENHEIT
  DWPT   - DEWPOINT IN FAHRENHEIT
  RH     - RELATIVE HUMIDITY IN PERCENT
  WIND   - DIRECTION AND SPEED IN MPH
  PRES   - MEAN SEA LEVEL PRESSURE IN INCHES OF HG
  WCI    - WIND CHILL INDEX
  VSB    - VISIBILITY IN MILES
  HX     - HEAT INDEX
  TC     - TEMPERATURE IN CELSIUS
  VRB    - VARIABLE WIND DIRECTION
  N/A    - NOT AVAILABLE
  
      

Other recent Regional Weather Roundups

Mon Aug 3, 7:04am

Mon Aug 3, 6:04am

Mon Aug 3, 5:04am

Mon Aug 3, 4:04am

Mon Aug 3, 3:04am

Mon Aug 3, 2:04am

Mon Aug 3, 1:04am

Mon Aug 3, 12:05am

Sun Aug 2, 11:04pm

Sun Aug 2, 10:04pm

Sun Aug 2, 9:04pm

Sun Aug 2, 8:04pm

Sun Aug 2, 7:04pm

Sun Aug 2, 6:04pm

Sun Aug 2, 5:04pm

Sun Aug 2, 4:05pm

Sun Aug 2, 3:04pm

Sun Aug 2, 2:05pm

Sun Aug 2, 1:04pm

Sun Aug 2, 12:04pm

Sun Aug 2, 11:04am

Sun Aug 2, 10:04am

Sun Aug 2, 9:05am

Sun Aug 2, 8:05am

Sun Aug 2, 7:04am

Sun Aug 2, 6:04am

Sun Aug 2, 4:05am

Sun Aug 2, 3:04am

Sun Aug 2, 2:04am

Sun Aug 2, 1:04am

Sun Aug 2, 12:05am

Sat Aug 1, 11:04pm

Sat Aug 1, 10:04pm

Sat Aug 1, 9:04pm

Sat Aug 1, 8:05pm

Sat Aug 1, 7:04pm

Sat Aug 1, 6:04pm

Sat Aug 1, 5:05pm

Sat Aug 1, 4:05pm

Sat Aug 1, 3:04pm

Sat Aug 1, 2:04pm

Sat Aug 1, 1:04pm

Sat Aug 1, 12:04pm

Sat Aug 1, 11:05am

Sat Aug 1, 10:05am

Sat Aug 1, 9:04am

Sat Aug 1, 8:04am

Sat Aug 1, 7:04am

Sat Aug 1, 6:04am

Sat Aug 1, 5:04am

Sat Aug 1, 4:05am

Sat Aug 1, 3:04am

Sat Aug 1, 2:04am

Sat Aug 1, 1:04am

Sat Aug 1, 12:05am

Fri Jul 31, 11:05pm

Fri Jul 31, 10:04pm

Fri Jul 31, 9:04pm

Fri Jul 31, 8:05pm

Fri Jul 31, 7:05pm

Fri Jul 31, 6:04pm

Fri Jul 31, 5:04pm

Fri Jul 31, 4:05pm

Fri Jul 31, 3:04pm

Fri Jul 31, 2:05pm

Fri Jul 31, 1:04pm

Fri Jul 31, 12:04pm

Fri Jul 31, 11:04am

Fri Jul 31, 10:04am

Fri Jul 31, 9:04am

Fri Jul 31, 8:04am

Fri Jul 31, 7:04am

Fri Jul 31, 6:04am

Fri Jul 31, 5:04am

Fri Jul 31, 4:04am

Fri Jul 31, 3:04am

Fri Jul 31, 2:04am

Fri Jul 31, 1:05am

Fri Jul 31, 12:04am

Thu Jul 30, 11:04pm

Thu Jul 30, 10:04pm

Thu Jul 30, 9:04pm

Thu Jul 30, 8:04pm

Thu Jul 30, 7:05pm

Thu Jul 30, 6:04pm

Thu Jul 30, 5:04pm

Thu Jul 30, 4:05pm

Thu Jul 30, 3:04pm

Thu Jul 30, 2:05pm

Thu Jul 30, 1:04pm

Thu Jul 30, 12:04pm

Thu Jul 30, 11:04am

Thu Jul 30, 10:05am

Thu Jul 30, 9:04am

Thu Jul 30, 8:04am

Thu Jul 30, 7:04am

Thu Jul 30, 6:04am

Thu Jul 30, 5:04am

Thu Jul 30, 4:04am

Thu Jul 30, 3:04am

Thu Jul 30, 2:04am

Thu Jul 30, 1:04am

Thu Jul 30, 12:04am

Wed Jul 29, 11:04pm

Wed Jul 29, 10:04pm

Wed Jul 29, 9:04pm

Wed Jul 29, 8:04pm

Wed Jul 29, 7:05pm

Wed Jul 29, 6:05pm

Wed Jul 29, 5:04pm

Wed Jul 29, 4:04pm

Wed Jul 29, 3:04pm

Wed Jul 29, 2:04pm

Wed Jul 29, 1:05pm

Wed Jul 29, 12:05pm

Wed Jul 29, 11:04am

Wed Jul 29, 10:04am

Wed Jul 29, 9:04am

Wed Jul 29, 8:04am

Wed Jul 29, 7:04am

Wed Jul 29, 6:04am

Wed Jul 29, 5:04am

Wed Jul 29, 4:04am

Wed Jul 29, 3:04am

Wed Jul 29, 2:04am

Wed Jul 29, 1:04am

Wed Jul 29, 12:05am

Tue Jul 28, 11:05pm

Tue Jul 28, 10:05pm

Tue Jul 28, 9:04pm

Tue Jul 28, 8:04pm

Tue Jul 28, 7:04pm

Tue Jul 28, 6:04pm

Tue Jul 28, 5:04pm

Tue Jul 28, 4:05pm

Tue Jul 28, 3:05pm

Tue Jul 28, 2:04pm

Tue Jul 28, 1:05pm

Tue Jul 28, 12:04pm

Tue Jul 28, 11:04am

Tue Jul 28, 10:04am

Tue Jul 28, 9:04am

Tue Jul 28, 8:04am

Tue Jul 28, 7:04am

Tue Jul 28, 6:04am

Tue Jul 28, 5:04am

Tue Jul 28, 4:04am

Tue Jul 28, 3:04am

Tue Jul 28, 2:04am

Tue Jul 28, 1:04am

Tue Jul 28, 12:05am

Mon Jul 27, 11:04pm

Mon Jul 27, 10:05pm

Mon Jul 27, 9:05pm

Mon Jul 27, 8:04pm

Mon Jul 27, 7:04pm

Mon Jul 27, 6:05pm

Mon Jul 27, 5:05pm

Mon Jul 27, 4:04pm

Mon Jul 27, 3:04pm

Mon Jul 27, 2:04pm

Mon Jul 27, 1:04pm

Mon Jul 27, 12:04pm

Mon Jul 27, 11:04am

Mon Jul 27, 10:04am

Mon Jul 27, 9:04am

Mon Jul 27, 8:04am

Meta data:

ID: 96bf6f6a-5e6a-4d58-b886-d5106bcae37d
Link: https://api.weather.gov/products/96bf6f6a-5e6a-4d58-b886-d5106bcae37d